Regional Weather Roundup
Issued by NWS Albany, NY

Home | Current Version | Previous Version | Text Only | Print | Product List | Glossary On
Versions: 1 2 3 4 5 6 7 8 9 10 11 12 13 14 15 16 17 18 19 20 21 22 23 24 25 26 27
000
ASUS41 KALY 260710
RWRALY

NEW YORK STATE HOURLY WEATHER ROUNDUP
NATIONAL WEATHER SERVICE ALBANY NY
200 AM EST SUN FEB 26 2017

NOTE: "FAIR" INDICATES FEW OR NO CLOUDS BELOW 12,000 FEET WITH NO
SIGNIFICANT WEATHER AND/OR NO OBSTRUCTIONS TO VISIBILITY.

NYZ032-033-038>043-046>054-057>066-NYZ062>081-082-084-260800-
EAST


CITY           SKY/WX    TMP DP  RH WIND       PRES   REMARKS
ALBANY         CLOUDY    35  25  66 W20G30    29.70R WCI  24
GLENS FALLS    MOCLDY    36  25  64 SW5       29.64R WCI  32
POUGHKEEPSIE   CLOUDY    39  26  59 W22G30    29.70R WCI  29
NEWBURGH       CLOUDY    37  28  70 NW14G25   29.72R WCI  29
MONTGOMERY     CLOUDY    39  25  57 NW14G21   29.71R WCI  31
WHITE PLAINS   PTCLDY    39  27  62 NW22G28   29.69R WCI  29
ISLIP          CLOUDY    42  34  73 NW10      29.68R
NEW YORK CITY  MOCLDY    44  30  57 NW17G29   29.72R
CENTRAL PARK   CLOUDY    41  31  67 VRB7G18   29.74R
$$

NYZ005>009-017-018-044>046-055-056-260800-
CENTRAL


CITY           SKY/WX    TMP DP  RH WIND       PRES   REMARKS
FULTON         FLURRIES  31  23  72 W24G32    29.77S WCI  17
SYRACUSE       CLOUDY    32  20  61 W22G28    29.77R WCI  19
ROME           FLURRIES  32  25  75 W20G31    29.75R WCI  20
ELMIRA         FLURRIES  30  22  72 W10G20    29.81R WCI  21
BINGHAMTON     CLOUDY    28  19  69 NW12G21   29.73R WCI  18
MONTICELLO     CLOUDY   N/A N/A N/A NW12G22   29.70R
$$

NYZ026>034-041>043-087-260800-
NORTH


CITY           SKY/WX    TMP DP  RH WIND       PRES   REMARKS
WATERTOWN      CLOUDY    31  21  66 W21G32    29.73R WCI  18
FORT DRUM      NOT AVBL
OGDENSBURG     FAIR      32  23  68 W14G23    29.66R WCI  22
MASSENA        MOCLDY    33  23  66 W12G22    29.64R WCI  24
SARANAC LAKE   FLURRIES  27  24  89 W8G18     29.55R WCI  19
PLATTSBURGH    CLOUDY    36  25  64 MISG      29.59R
$$

NYZ001>004-010>016-019>021-085-260800-
WEST


CITY           SKY/WX    TMP DP  RH WIND       PRES   REMARKS
NIAGARA FALLS  CLOUDY    30  18  60 W18G28    29.85R WCI  18
BUFFALO        FLURRIES  28  19  69 W16G28    29.85R WCI  16
DUNKIRK        MIX PCPN  28  17  63 W15G31    29.91R WCI  16
JAMESTOWN      CLOUDY    21  16  79 W10G16    29.85R WCI  10
WELLSVILLE     LGT SNOW  24  18  77 NW22G29   29.79R VSB 1   WCI   9
ROCHESTER      CLOUDY    30  19  63 W15G30    29.82R WCI  19
PENN YAN       LGT SNOW  29  19  66 W13G31    29.80R WCI  19
$$

             KEY
       WCI = WIND CHILL INDEX
       VSB = VISIBILITY
       HX  = HEAT INDEX
$$




USA.gov is the U.S. government's official web portal to all federal, state and local government web resources and services.